This is the latest recevied weather packets stored in our database for station/object AI5YA-13. If no packets are shown the sender has not sent any weather packets the latest 10 day(s).
| Time | Temp. | Humidity | Pressure | Rain* | Wind** | Luminosity | Snow |
|---|---|---|---|---|---|---|---|
| 1777820450 | 17.78° C | 57% | 1022.7 hPa | 0 mm | - | 376 W/m² | - |
| 1777820148 | 17.22° C | 58% | 1022.7 hPa | 0 mm | - | 350 W/m² | - |
| 1777819845 | 17.22° C | 58% | 1022.7 hPa | 0 mm | - | 317 W/m² | - |
| 1777819542 | 17.22° C | 59% | 1022.7 hPa | 0 mm | - | 270 W/m² | - |
| 1777819240 | 17.22° C | 60% | 1023 hPa | 0 mm | - | 259 W/m² | - |
| 1777818937 | 17.22° C | 60% | 1023 hPa | 0 mm | - | 251 W/m² | - |
| 1777818633 | 16.67° C | 61% | 1022.9 hPa | 0 mm | - | 242 W/m² | - |
| 1777818331 | 16.67° C | 62% | 1022.7 hPa | 0 mm | - | 250 W/m² | - |
| 1777818026 | 16.11° C | 63% | 1022.7 hPa | 0 mm | - | 248 W/m² | - |
| 1777817724 | 16.11° C | 63% | 1022.5 hPa | 0 mm | - | 104 W/m² | - |
| 1777817421 | 16.11° C | 64% | 1022.6 hPa | 0 mm | - | 79 W/m² | - |
| 1777817117 | 16.11° C | 65% | 1022.6 hPa | 0 mm | - | 71 W/m² | - |
| 1777816815 | 15.56° C | 66% | 1022.6 hPa | 0 mm | - | 67 W/m² | - |
| 1777816512 | 15.56° C | 67% | 1022.7 hPa | 0 mm | - | 60 W/m² | - |
| 1777816209 | 15.56° C | 68% | 1022.7 hPa | 0 mm | - | 55 W/m² | - |
| 1777815906 | 15° C | 69% | 1022.7 hPa | 0 mm | - | 51 W/m² | - |
| 1777815603 | 15° C | 69% | 1022.5 hPa | 0 mm | - | 119 W/m² | - |
| 1777815301 | 15° C | 71% | 1022.6 hPa | 0 mm | - | 77 W/m² | - |
| 1777814997 | 14.44° C | 73% | 1022.5 hPa | 0 mm | - | 90 W/m² | - |
| 1777814694 | 13.89° C | 74% | 1022.3 hPa | 0 mm | - | 74 W/m² | - |
| 1777814390 | 13.33° C | 76% | 1022 hPa | 0 mm | - | 68 W/m² | - |
| 1777814087 | 12.78° C | 79% | 1022.3 hPa | 0 mm | - | 61 W/m² | - |
| 1777813784 | 12.22° C | 80% | 1022.4 hPa | 0 mm | - | 54 W/m² | - |
| 1777813482 | 12.22° C | 82% | 1022.4 hPa | 0 mm | - | 48 W/m² | - |
| 1777813179 | 11.67° C | 83% | 1022.3 hPa | 0 mm | - | 43 W/m² | - |
* Rain latest hour (hover to see other rain measurements)
** Current wind speed in m/s (hover to see current wind gust speed)